{"data":{"norad_id":62581,"epoch":"2026-05-25T03:31:32.100384Z","epoch_age_seconds":72646,"freshness":"FRESH","line1":"1 62581U 25007G   26145.14689931 -.00000054  00000+0  81681-4 0  9992","line2":"2 62581  54.9781  11.9665 0017454  82.3640 277.9298 13.80626057 71550","mean_motion":13.80626057,"eccentricity":0.0017454,"inclination_deg":54.9781,"raan_deg":11.9665,"arg_perigee_deg":82.364,"mean_anomaly_deg":277.9298,"bstar":8.1681e-5,"rev_number":7155,"period_min":104.30050864961,"perigee_km":948.8561294917899,"apogee_km":974.47791737679,"semimajor_km":7339.8040234343,"source":"CELESTRAK","updated_at":"2026-05-25T13:38:03.091328Z"}}